Location: Lake Almanor
(40.2485°N, 121.1442°W)
Time: 16:15:36
(UTC-08:00)

STARLINK-1078 - Pass Details

Date: 02 February 2020
Orbit: 348 x 351 km, 53.0° (Epoch: 17 February)

Event Time Altitude Azimuth Distance (km) Brightness Sun altitude
Rises 18:57:40 0° 296° (WNW) 2,177 7.7 -18.1°
Reaches altitude 10° 19:00:01 10° 278° (W) 1,330 6.7 -18.5°
Maximum altitude 19:02:15 19° 229° (SW) 916 5.4 -19.0°
Drops below altitude 10° 19:04:28 10° 180° (S) 1,325 5.6 -19.4°
Enters shadow 19:04:52 - 176° (S) 1,452 5.8 -19.5°
